Starlink 4296

operational
NORAD ID: 52995 Int'l Des: 2022-076 Owner: SPXS Country: US Constellation: starlink
LEOCIRCULAR

About Starlink 4296

Description loading...

Live Position

Loading 3D Globe...

Upcoming Passes

Altitude History

Altitude vs Time

uPlot chart will show altitude changes over time

Two-Line Element Set

1 52995U 22076K 25260.01161055 -.00001683 00000-0 -87717-4 0 9995
2 52995 53.2179 153.7948 0001489 99.0295 261.0865 15.08825801176620
Epoch: Sep 17, 2025 • Age: 14 hours

Current Status

Altitude 547.9 km
Velocity 7.59 km/s
Sub-Earth Point -26.26°S, 146.93°E
Launch Date Jul 7, 2022
Age 3.1 years
Type internet

Technical Details

Classification Payload
Mass 297.00 kg
Dry Mass 275.00 kg
Total Mass 297.00 kg
Length 0.20 m
Diameter 2.80 m
Span 9.00 m
Shape Box + pan
Manufacturer SPXS
Bus Type Starlink
Phase Status In Orbit
Owner/State SPXS/US

Large Constellations

Loading constellations...